[[{"header":{"parameterUnit":"m.s-1","parameterCategory":1,"la1":30.2991,"la2":30.254,"lo1":-89.0895,"lo2":-89.0444,"dy":0.0017,"dx":0.0017,"nx":28,"ny":28,"refTime":"2024-06-20T21:00:00:Z","depth":0,"parameterNumber":2,"parameterNumberName":"U-component_of_WINDS"},"data":[0,0,0,0,0,0,0,0,0,0,0,0,0,0,0,0,0,0,0,0,0,0,0,0,0,0,0,0,0,0,0,0,0,0,0,0,0,0,0,0,0,0,0,0,0,0,0,0,0,0,0,0,0,0,0,0,0,0,-6.6937,-6.6938,0,-6.7003,-6.7004,-6.7005,-6.6888,-6.6884,-6.688,-6.6876,-6.6947,-6.6953,-6.6958,0,0,0,0,0,0,0,0,0,0,0,0,0,-6.6714,-6.6719,-6.6937,-6.6938,-6.6939,-6.7003,-6.7004,-6.7005,-6.6889,-6.6884,-6.6879,-6.6875,-6.6946,-6.6952,-6.6959,0,0,0,0,0,0,0,0,0,0,0,0,0,-6.6799,-6.672,-6.6937,-6.6888,-6.6885,-6.7003,-6.7004,-6.7005,-6.689,-6.6884,-6.6878,-6.6872,-6.6943,-6.6952,-6.696,-6.7129,0,0,-6.6985,-6.6989,0,0,0,0,0,0,0,0,-6.6794,-6.6807,-6.6895,-6.6892,-6.6888,-6.6931,-6.6951,-6.7047,-6.6891,-6.6888,-6.6876,-6.6869,-6.6947,-6.6955,-6.698,-6.7133,-6.7136,-6.6986,-6.6991,-6.6995,-6.6997,0,0,0,0,0,0,0,-6.6788,-6.6804,-6.6963,-6.6896,-6.6892,-6.6865,-6.687,-6.6969,-6.695,-6.6888,-6.6879,-6.6889,-6.6944,-6.6972,-6.6981,-6.7137,-6.6986,-6.6993,-6.6998,-6.7002,-6.7434,-6.744,0,0,0,0,0,0,-6.6788,-6.68,-6.6961,-6.6965,-6.6826,-6.6873,-6.688,-6.6923,-6.6948,-6.6947,-6.6894,-6.6883,-6.6961,-6.6971,-6.6983,-6.7185,-6.6995,-6.7002,-6.7007,-6.7427,-6.7435,-6.7442,0,0,0,0,0,0,-6.6784,-6.6804,-6.6959,-6.688,-6.6898,-6.6883,-6.6934,-6.6928,-6.6956,-6.6953,-6.6949,-6.6926,-6.6957,-6.6971,-6.7094,-6.7186,-6.7006,-6.7014,-6.742,-6.743,-6.7439,-6.7589,0,0,0,0,0,0,-6.6778,-6.6803,-6.6866,-6.6882,-6.6902,-6.7068,-6.6939,-6.6933,-6.697,-6.6957,-6.6982,-6.6981,-6.6953,-6.7082,-6.7102,-6.7194,-6.702,-6.7412,-6.7424,-6.7436,-6.7576,-6.7603,-6.7626,0,0,0,0,0,-6.677,-6.6906,-6.687,-6.689,-6.6981,-6.7073,-6.7085,-6.705,-6.6978,-6.7042,-6.7041,-6.698,-6.7172,-6.7096,-6.7117,-6.7213,-6.7406,-6.7421,-6.7435,-6.7565,-6.7597,-6.7625,0,0,0,0,0,0,-6.6902,-6.6907,-6.6867,-6.7012,-6.7043,-6.7053,-6.7133,-6.7085,-6.7138,-6.7123,-6.7078,-6.7085,-6.7218,-6.7227,-6.7142,-6.7379,-6.7277,-6.7297,-6.7368,-6.7399,-6.7424,-6.7419,-6.7027,0,0,0,0,0,-6.6948,-6.7021,-6.7022,-6.715,-6.7167,-6.7148,-6.7187,-6.7157,-6.7188,-6.72,-6.7207,-6.7241,-6.7308,-6.7354,-6.7416,-6.7576,-6.7581,-6.7653,-6.7677,-6.7698,-6.7716,-6.7803,-6.7836,-6.749,-6.749,-6.749,0,0,-6.7043,-6.7055,-6.7104,-6.7177,-6.7197,-6.7275,-6.716,-6.7247,-6.7305,-6.7214,-6.733,-6.7337,-6.7371,-6.7514,-6.7577,-6.7526,-6.7812,-6.7716,-6.7733,-6.774,-6.7822,-6.7854,-6.7884,-6.75,-6.7498,-6.7497,0,0,-6.7257,-6.7273,-6.7382,-6.7405,-6.7437,-6.7423,-6.745,-6.7468,-6.7469,-6.7584,-6.7518,-6.7587,-6.7704,-6.7732,-6.7761,-6.7988,-6.7935,-6.8009,-6.814,-6.8225,-6.8253,-6.8277,-6.8359,-6.8389,-6.8027,-6.8027,-6.8027,0,-6.7373,-6.7487,-6.7445,-6.7537,-6.7572,-6.7491,-6.7603,-6.7627,-6.7679,-6.7705,-6.7646,-6.7793,-6.781,-6.7959,-6.8015,-6.804,-6.8071,-6.8007,-6.8252,-6.8275,-6.8297,-6.8376,-6.8407,-6.8036,-6.8035,-6.8034,-6.8033,0,-6.7628,-6.7708,-6.7792,-6.7843,-6.7887,-6.7989,-6.7963,-6.8013,-6.798,-6.7973,-6.8093,-6.8111,-6.8176,-6.8209,-6.8177,-6.8355,-6.8322,-6.8259,-6.8155,-6.834,-6.8413,-6.8443,-6.8049,-6.8046,-6.8043,-6.8041,0,0,-6.7927,-6.7954,-6.7986,-6.8009,-6.8039,-6.8101,-6.8199,-6.8262,-6.8306,-6.8345,-6.8428,-6.8529,-6.8471,-6.8505,-6.8475,-6.8551,-6.8731,-6.8478,-6.8478,-6.8526,-6.893,-6.8979,-6.9014,-6.8695,-6.8701,-6.8705,-6.8928,0,-6.8142,-6.831,-6.8276,-6.8442,-6.8517,-6.8442,-6.8528,-6.8557,-6.8553,-6.8617,-6.8613,-6.8687,-6.8603,-6.8623,-6.8694,-6.8694,-6.8812,-6.8677,-6.8774,-6.8778,-6.877,-6.9052,-6.9104,-6.9313,-6.8956,-6.8961,-6.8964,0,-6.8414,-6.8463,-6.8636,-6.8655,-6.8685,-6.8763,-6.8819,-6.888,-6.8912,-6.8904,-6.8942,-6.8899,-6.8999,-6.8893,-6.9031,-6.8941,-6.8978,-6.8985,-6.8992,-6.9001,-6.8884,-6.9071,-6.9378,-6.9411,-6.9008,-6.9005,-6.9001,0,-6.8618,-6.8726,-6.8844,-6.8866,-6.8891,-6.8948,-6.8961,-6.8986,-6.9027,-6.9076,-6.9102,-6.9163,-6.9196,-6.9245,-6.922,-6.9145,-6.9364,-6.9255,-6.9362,-6.9363,-6.9413,-6.941,-6.9733,-6.9434,-6.9434,-6.9433,-6.9433,0,-6.8862,-6.8972,-6.8936,-6.901,-6.9131,-6.909,-6.9212,-6.9216,-6.924,-6.9314,-6.9252,-6.9323,-6.9285,-6.9354,-6.9335,-6.9454,-6.9469,-6.9467,-6.9461,-6.9474,-6.9474,-6.9499,-6.9485,-6.9441,-6.944,-6.9438,-6.9437,0,-6.9111,-6.9091,-6.9216,-6.9229,-6.9235,-6.9324,-6.9336,-6.9405,-6.9396,-6.9491,-6.951,-6.9498,-6.9576,-6.9556,-6.964,-6.9628,-6.9778,-6.9753,-6.9767,-6.9762,-6.987,-6.9861,-7.0221,-7.0268,-6.9938,-6.9941,-6.9944,0,-6.9269,-6.9352,-6.9374,-6.9418,-6.9436,-6.9508,-6.9549,-6.9513,-6.9558,-6.9601,-6.9666,-6.9738,-6.9794,-6.9922,-6.9922,-6.9986,-6.9964,-7.0085,-6.9973,-6.9984,-6.9968,-6.9964,-6.9973,-7.0108,-7.0112,-7.0115,-7.0118,0,-6.9553,-6.9539,-6.96,-6.9658,-6.9708,-6.9753,-6.9791,-6.9832,-6.9798,-6.9853,-6.9931,-6.9974,-7.0061,-7.0134,-7.0194,-7.0208,-7.016,-7.0153,-7.0181,-7.0196,-7.0202,-7.0202,-6.983,-7.0145,-7.0142,-7.014,-7.0139,-7.0138,-6.9762,-6.9833,-6.986,-6.993,-6.9955,-6.9993,-7.0059,-7.0058,-7.0122,-7.0189,-7.0164,-7.0255,-7.0285,-7.036,-7.0383,-7.0454,-7.0409,-7.0449,-7.046,-7.0471,-7.0486,-7.0189,-7.0465,-7.0464,-7.0463,-7.0463,-7.0462,0,-7.0044,-7.0058,-7.0123,-7.0179,-7.0234,-7.0181,-7.0221,-7.0272,-7.0352,-7.0384,-7.044,-7.0531,-7.0602,-7.0608,-7.0675,-7.0731,-7.071,-7.075,-7.0747,-7.0751,-7.0522,-7.0491,-7.0766,-7.0766,-7.0766,-7.0766,-7.0766,-7.0766,-7.0198,-7.0315,-7.0305,-7.0434,-7.0447,-7.0534,-7.0562,-7.0597,-7.0623,-7.0727,-7.0785,-7.0787,-7.081,-7.0878,-7.0942,-7.0942,-7.097,-7.102,-7.1011,-7.0797,-7.0767,-7.0738,-7.071,-7.1026,-7.1026,-7.1235,-7.1237,-7.1238]},{"header":{"parameterUnit":"m.s-1","parameterCategory":1,"la1":30.2991,"la2":30.254,"lo1":-89.0895,"lo2":-89.0444,"dy":0.0017,"dx":0.0017,"nx":28,"ny":28,"refTime":"2024-06-20T21:00:00:Z","depth":0,"parameterNumber":3,"parameterNumberName":"V-component_of_WINDS"},"data":[0,0,0,0,0,0,0,0,0,0,0,0,0,0,0,0,0,0,0,0,0,0,0,0,0,0,0,0,0,0,0,0,0,0,0,0,0,0,0,0,0,0,0,0,0,0,0,0,0,0,0,0,0,0,0,0,0,0,-2.1866,-2.1866,0,-2.1844,-2.1844,-2.1844,-2.1787,-2.1786,-2.1785,-2.1784,-2.1763,-2.1763,-2.1764,0,0,0,0,0,0,0,0,0,0,0,0,0,-2.186,-2.186,-2.1866,-2.1866,-2.1866,-2.1844,-2.1844,-2.1844,-2.1787,-2.1786,-2.1784,-2.1783,-2.1763,-2.1763,-2.1764,0,0,0,0,0,0,0,0,0,0,0,0,0,-2.1853,-2.1861,-2.1866,-2.1835,-2.1832,-2.1844,-2.1844,-2.1844,-2.1788,-2.1786,-2.1784,-2.1782,-2.1762,-2.1763,-2.1764,-2.1806,0,0,-2.1767,-2.1767,0,0,0,0,0,0,0,0,-2.1854,-2.1853,-2.184,-2.1837,-2.1834,-2.1817,-2.1834,-2.1831,-2.1788,-2.1805,-2.1784,-2.1781,-2.1782,-2.1781,-2.1781,-2.1805,-2.1804,-2.1767,-2.1767,-2.1768,-2.1768,0,0,0,0,0,0,0,-2.1854,-2.1854,-2.1858,-2.184,-2.1836,-2.1822,-2.1819,-2.1833,-2.1804,-2.1803,-2.1799,-2.1797,-2.178,-2.1781,-2.178,-2.1804,-2.1767,-2.1767,-2.1768,-2.1768,-2.186,-2.1862,0,0,0,0,0,0,-2.1859,-2.1855,-2.1858,-2.1857,-2.1839,-2.1824,-2.182,-2.1824,-2.1804,-2.1799,-2.1798,-2.1794,-2.178,-2.1779,-2.1779,-2.1827,-2.1768,-2.1768,-2.1769,-2.1858,-2.186,-2.1862,0,0,0,0,0,0,-2.1859,-2.186,-2.1859,-2.1855,-2.1853,-2.1826,-2.183,-2.1824,-2.1825,-2.18,-2.1795,-2.1804,-2.1779,-2.1778,-2.1799,-2.1825,-2.1769,-2.177,-2.1856,-2.1859,-2.1861,-2.1922,0,0,0,0,0,0,-2.1859,-2.186,-2.1875,-2.1855,-2.1854,-2.1879,-2.1832,-2.1825,-2.1826,-2.1821,-2.1804,-2.18,-2.1777,-2.1798,-2.18,-2.1825,-2.177,-2.1853,-2.1857,-2.186,-2.1917,-2.1926,-2.1934,0,0,0,0,0,-2.1859,-2.1894,-2.1876,-2.1877,-2.1872,-2.1881,-2.188,-2.1853,-2.1828,-2.1844,-2.1828,-2.18,-2.1822,-2.1801,-2.1803,-2.1828,-2.1851,-2.1856,-2.186,-2.1914,-2.1925,-2.1934,0,0,0,0,0,0,-2.1918,-2.189,-2.1871,-2.19,-2.1893,-2.1871,-2.189,-2.1866,-2.1866,-2.1861,-2.1828,-2.1824,-2.185,-2.1841,-2.1818,-2.1867,-2.1832,-2.1837,-2.1872,-2.1883,-2.1891,-2.1892,-2.1771,0,0,0,0,0,-2.1934,-2.1943,-2.1919,-2.1947,-2.1944,-2.1918,-2.192,-2.19,-2.1892,-2.1889,-2.1874,-2.1868,-2.1873,-2.1877,-2.1881,-2.1916,-2.1911,-2.1934,-2.1943,-2.195,-2.1954,-2.1972,-2.1982,-2.1876,-2.1876,-2.1876,0,0,-2.1968,-2.1954,-2.1962,-2.1958,-2.195,-2.1961,-2.1916,-2.1928,-2.1936,-2.1891,-2.191,-2.1899,-2.189,-2.1918,-2.1929,-2.1911,-2.1982,-2.1955,-2.1961,-2.1961,-2.1977,-2.1987,-2.1996,-2.1879,-2.1879,-2.1878,0,0,-2.2035,-2.2026,-2.2048,-2.2041,-2.2029,-2.2011,-2.2017,-2.1998,-2.1989,-2.2008,-2.1974,-2.1983,-2.1993,-2.1987,-2.1986,-2.205,-2.2025,-2.2053,-2.2096,-2.2114,-2.2122,-2.2129,-2.2152,-2.2161,-2.2057,-2.2057,-2.2057,0,-2.2079,-2.2092,-2.2062,-2.2077,-2.2076,-2.2036,-2.2058,-2.2053,-2.2044,-2.2044,-2.2024,-2.2035,-2.2026,-2.2052,-2.2068,-2.2068,-2.2073,-2.2054,-2.2123,-2.213,-2.2136,-2.2158,-2.2167,-2.2061,-2.206,-2.206,-2.206,0,-2.2147,-2.2157,-2.2176,-2.2167,-2.2169,-2.2187,-2.216,-2.2166,-2.2145,-2.213,-2.2149,-2.2137,-2.2137,-2.2141,-2.2122,-2.2165,-2.2154,-2.2129,-2.2093,-2.215,-2.217,-2.2178,-2.2066,-2.2064,-2.2063,-2.2063,0,0,-2.225,-2.2224,-2.2232,-2.2227,-2.2212,-2.2219,-2.2236,-2.2235,-2.2241,-2.2236,-2.2249,-2.2258,-2.2235,-2.2233,-2.2213,-2.2228,-2.228,-2.2201,-2.22,-2.2216,-2.2327,-2.2346,-2.2356,-2.2263,-2.2265,-2.2266,-2.2328,0,-2.2313,-2.234,-2.2313,-2.2345,-2.2354,-2.2315,-2.233,-2.2322,-2.2308,-2.2314,-2.2299,-2.2306,-2.2274,-2.2273,-2.2287,-2.2271,-2.2302,-2.2266,-2.2276,-2.2276,-2.2279,-2.2366,-2.2386,-2.2445,-2.2335,-2.2337,-2.2337,0,-2.239,-2.2388,-2.2421,-2.2402,-2.2405,-2.2419,-2.2416,-2.2422,-2.2413,-2.2401,-2.24,-2.2375,-2.239,-2.2355,-2.2376,-2.2352,-2.2355,-2.2348,-2.2349,-2.2349,-2.231,-2.2368,-2.2463,-2.2472,-2.2349,-2.2348,-2.2348,0,-2.2462,-2.2467,-2.2487,-2.2485,-2.2464,-2.2475,-2.2467,-2.2455,-2.2457,-2.2455,-2.2456,-2.2456,-2.2456,-2.2457,-2.2433,-2.2409,-2.2457,-2.242,-2.2448,-2.2449,-2.246,-2.246,-2.2557,-2.2462,-2.2462,-2.2462,-2.2462,0,-2.2534,-2.2556,-2.2519,-2.2532,-2.2555,-2.2524,-2.2548,-2.2536,-2.2527,-2.2536,-2.2504,-2.2514,-2.2481,-2.2488,-2.2469,-2.249,-2.249,-2.2482,-2.2476,-2.2484,-2.2486,-2.2485,-2.2481,-2.2464,-2.2464,-2.2463,-2.2463,0,-2.2619,-2.2595,-2.2614,-2.2593,-2.2588,-2.2606,-2.2589,-2.2599,-2.2583,-2.2596,-2.2597,-2.2572,-2.2578,-2.2555,-2.2557,-2.2544,-2.2575,-2.2563,-2.2578,-2.2574,-2.2604,-2.2601,-2.2704,-2.2716,-2.2614,-2.2615,-2.2616,0,-2.2666,-2.2682,-2.2662,-2.2666,-2.266,-2.2667,-2.2668,-2.2639,-2.2641,-2.2632,-2.2644,-2.2647,-2.2648,-2.266,-2.2643,-2.2644,-2.2632,-2.2668,-2.2632,-2.264,-2.2632,-2.2632,-2.2633,-2.2675,-2.2677,-2.2678,-2.2679,0,-2.2754,-2.2741,-2.2744,-2.2742,-2.2744,-2.2742,-2.2738,-2.2743,-2.2711,-2.2716,-2.2722,-2.2723,-2.2725,-2.2729,-2.2727,-2.2719,-2.2694,-2.269,-2.2697,-2.2705,-2.2713,-2.2709,-2.2598,-2.2688,-2.2687,-2.2686,-2.2686,-2.2685,-2.2821,-2.2833,-2.2821,-2.2825,-2.2818,-2.2815,-2.2824,-2.2809,-2.2813,-2.2812,-2.2794,-2.2804,-2.2794,-2.2789,-2.2783,-2.279,-2.2774,-2.2783,-2.2786,-2.2789,-2.2794,-2.2712,-2.279,-2.279,-2.2789,-2.2789,-2.2789,0,-2.2906,-2.2896,-2.29,-2.2895,-2.2898,-2.2874,-2.2867,-2.2872,-2.288,-2.2873,-2.2875,-2.2881,-2.2885,-2.2868,-2.2869,-2.2878,-2.2867,-2.2879,-2.2878,-2.2877,-2.2809,-2.2803,-2.2889,-2.2889,-2.2889,-2.2889,-2.2889,-2.2889,-2.2951,-2.2969,-2.2956,-2.2971,-2.2961,-2.297,-2.2968,-2.2965,-2.2959,-2.2968,-2.297,-2.2959,-2.2948,-2.2948,-2.2951,-2.2945,-2.2947,-2.2964,-2.2955,-2.2892,-2.2882,-2.2873,-2.2867,-2.2965,-2.2965,-2.3023,-2.3023,-2.3024]}]]